DW0487 Weather Reports


Display with metric or nautical units.
time (UTC)temp
F
wind
direction
speed
MPH
gust
MPH
rain 1hr
in
rain 24hr
in
rain mn
in
humidity
%
barometer
mb
20260904223042 59 224 1.0 3.0 0.00 0.00 0.00 84 1015.8
20260904221540 58 44 0.0 3.0 0.00 0.00 0.00 85 1015.6
20260904220104 58 55 1.0 5.0 0.00 0.00 0.00 84 1015.5
20260904214537 59 139 0.0 0.0 0.00 0.00 0.00 83 1015.5
20260904213037 59 219 0.0 3.0 0.00 0.00 0.00 82 1015.5
20260904211548 59 286 0.0 2.0 0.00 0.00 0.00 82 1015.4
20260904210038 60 223 1.0 3.0 0.00 0.00 0.00 82 1015.5
20260904204545 60 280 0.0 3.0 0.00 0.00 0.00 81 1015.5
20260904203042 60 292 0.0 0.0 0.00 0.00 0.00 79 1015.5
20260904201534 62 240 1.0 3.0 0.00 0.00 0.00 78 1015.6
20260904200038 62 154 0.0 2.0 0.00 0.00 0.00 78 1015.4
20260904194547 63 228 0.0 0.0 0.00 0.00 0.00 75 1015.3
20260904193034 64 244 1.0 4.0 0.00 0.00 0.00 74 1015.1
20260904191540 65 189 2.0 4.0 0.00 0.00 0.00 71 1015.0
20260904190033 66 43 0.0 3.0 0.00 0.00 0.00 68 1014.7
20260904184531 68 198 0.0 1.0 0.00 0.00 0.00 62 1014.5
20260904183034 69 198 0.0 3.0 0.00 0.00 0.00 61 1014.3
20260904181529 70 325 0.0 1.0 0.00 0.00 0.00 60 1014.1
20260904180028 71 288 3.0 4.0 0.00 0.00 0.00 59 1014.0
20260904174554 73 20 2.0 6.0 0.00 0.00 0.00 54 1013.8
20260904173025 74 338 3.0 8.0 0.00 0.00 0.00 53 1013.5
20260904171525 77 15 3.0 6.0 0.00 0.00 0.00 50 1013.5
20260904170124 80 12 5.0 12.0 0.00 0.00 0.00 45 1013.4
20260904164521 81 32 4.0 9.0 0.00 0.00 0.00 44 1013.4
20260904163020 82 51 6.0 12.0 0.00 0.00 0.00 40 1013.4
20260904161520 83 37 7.0 11.0 0.00 0.00 0.00 42 1013.3
20260904160119 84 25 4.0 10.0 0.00 0.00 0.00 41 1013.4
20260904154516 84 44 5.0 12.0 0.00 0.00 0.00 40 1013.6
20260904153020 85 37 4.0 10.0 0.00 0.00 0.00 41 1013.6
20260904151515 84 45 5.0 8.0 0.00 0.00 0.00 42 1013.6
20260904150114 85 37 8.0 11.0 0.00 0.00 0.00 38 1013.6
20260904144552 85 50 6.0 9.0 0.00 0.00 0.00 39 1013.6
20260904143049 84 324 3.0 8.0 0.00 0.00 0.00 41 1013.8
20260904141546 85 291 1.0 6.0 0.00 0.00 0.00 38 1014.1
20260904140010 85 10 1.0 9.0 0.00 0.00 0.00 43 1014.2
20260904134508 85 306 2.0 9.0 0.00 0.00 0.00 37 1014.3
20260904133007 85 339 2.0 8.0 0.00 0.00 0.00 38 1014.5
20260904131506 85 323 1.0 7.0 0.00 0.00 0.00 35 1014.8
20260904130003 86 175 3.0 7.0 0.00 0.00 0.00 35 1015.1
20260904124611 86 148 4.0 8.0 0.00 0.00 0.00 32 1015.2
20260904123113 84 249 1.0 8.0 0.00 0.00 0.00 36 1015.3
20260904121602 85 149 3.0 8.0 0.00 0.00 0.00 35 1015.4
20260904120101 85 142 6.0 10.0 0.00 0.00 0.00 35 1015.8
20260904114549 83 240 3.0 6.0 0.00 0.00 0.00 39 1016.2
20260904113054 82 233 3.0 7.0 0.00 0.00 0.00 40 1016.5
20260904111544 82 93 2.0 8.0 0.00 0.00 0.00 39 1016.7
20260904110052 81 145 2.0 9.0 0.00 0.00 0.00 38 1017.0
20260904104537 80 143 2.0 7.0 0.00 0.00 0.00 45 1017.2
20260904103033 76 73 2.0 5.0 0.00 0.00 0.00 48 1017.7
20260904101530 76 296 2.0 4.0 0.00 0.00 0.00 52 1017.8
20260904100026 74 14 1.0 4.0 0.00 0.00 0.00 53 1018.2
20260904094522 73 314 0.0 5.0 0.00 0.00 0.00 56 1018.6
20260904093018 72 348 3.0 6.0 0.00 0.00 0.00 54 1018.8
20260904091519 72 70 2.0 7.0 0.00 0.00 0.00 54 1018.9
20260904090009 70 47 2.0 4.0 0.00 0.00 0.00 57 1019.0
20260904084505 69 22 2.0 5.0 0.00 0.00 0.00 61 1019.1
20260904083103 68 71 1.0 4.0 0.00 0.00 0.00 63 1019.2
20260904081556 65 59 2.0 4.0 0.00 0.00 0.00 66 1019.4
20260904080058 64 42 0.0 3.0 0.00 0.00 0.00 65 1019.6
20260904074553 62 20 0.0 4.0 0.00 0.00 0.00 70 1019.8
20260904073044 61 38 0.0 4.0 0.00 0.00 0.00 74 1019.7
20260904071540 60 348 1.0 3.0 0.00 0.00 0.00 76 1019.8
20260904070045 58 5 0.0 5.0 0.00 0.00 0.00 78 1020.1
20260904064543 56 81 1.0 3.0 0.00 0.00 0.00 82 1020.4
20260904063036 54 102 0.0 0.0 0.00 0.00 0.00 86 1020.4
20260904061540 51 134 0.0 2.0 0.00 0.00 0.00 91 1020.4
20260904060030 50 111 0.0 0.0 0.00 0.00 0.00 92 1020.5
20260904054531 50 111 0.0 1.0 0.00 0.00 0.00 91 1020.5
20260904053025 50 221 0.0 0.0 0.00 0.00 0.00 91 1020.5
20260904051524 50 221 0.0 2.0 0.00 0.00 0.00 91 1020.7
20260904050022 50 221 0.0 3.0 0.00 0.00 0.00 90 1020.8
20260904044529 50 268 0.0 0.0 0.00 0.00 0.00 91 1020.7
20260904043018 51 268 0.0 0.0 0.00 0.00 0.00 89 1020.6
20260904041514 52 174 0.0 0.0 0.00 0.00 0.00 89 1020.6
20260904040012 52 201 0.0 0.0 0.00 0.00 0.00 89 1020.7
20260904034522 53 202 0.0 0.0 0.00 0.00 0.00 88 1020.7
20260904033010 53 199 0.0 0.0 0.00 0.00 0.00 88 1020.9
20260904031512 53 175 0.0 0.0 0.00 0.00 0.00 88 1020.8
20260904030006 55 204 0.0 1.0 0.00 0.00 0.00 85 1020.9
20260904024502 55 215 1.0 4.0 0.00 0.00 0.00 83 1020.7
20260904023103 56 227 1.0 3.0 0.00 0.00 0.00 83 1020.9
20260904021559 57 182 1.0 3.0 0.00 0.00 0.00 81 1020.9
20260904020057 58 208 2.0 5.0 0.00 0.00 0.00 79 1021.0
20260904014558 58 225 1.0 3.0 0.00 0.00 0.00 80 1021.0
20260904013052 58 176 1.0 4.0 0.00 0.00 0.00 79 1021.1
20260904011608 58 215 1.0 4.0 0.00 0.00 0.00 80 1021.0
20260904010104 59 263 2.0 4.0 0.00 0.00 0.00 79 1021.1
20260904004550 59 179 0.0 4.0 0.00 0.00 0.00 81 1021.2
20260904003049 59 217 0.0 2.0 0.00 0.00 0.00 82 1021.2
20260904001548 59 133 2.0 3.0 0.00 0.00 0.00 83 1021.5
20260904000053 58 75 0.0 0.0 0.00 0.00 0.00 85 1021.5
20260903234546 59 123 0.0 2.0 0.00 0.00 0.00 84 1021.7
20260903233041 59 220 0.0 2.0 0.00 0.00 0.00 84 1021.7
20260903231544 59 192 0.0 2.0 0.00 0.00 0.00 83 1021.7
20260903230045 60 192 0.0 0.0 0.00 0.00 0.00 83 1021.9
20260903224543 59 192 0.0 0.0 0.00 0.00 0.00 84 1022.0